Wind_Speed
35 34 32 30 29 28 26 25 24 23 22 21 19 17 16 15 13 13 12 11 12 12 13 12 11 11 10 9 8 8 7 7 6 6 5 5 6 6 6 6 6 6
36 35 34 32 31 30 28 27 26 25 24 23 21 18 16 15 14 14 13 12 12 12 12 13 13 12 11 10 10 9 9 9 8 7 6 5 6 6 6 6 7 7
36 36 35 34 33 31 29 28 28 26 25 25 24 21 18 16 15 15 14 13 12 12 12 12 13 13 12 12 11 10 10 10 10 9 7 6 6 6 6 6 6 7
37 37 36 35 34 33 31 29 28 27 26 26 26 24 21 18 17 16 16 15 14 13 12 12 12 13 13 13 12 11 11 11 11 11 10 8 7 7 7 7 7 7
37 37 37 36 34 34 32 30 29 29 28 28 27 26 24 21 19 18 18 17 15 14 14 13 13 13 13 13 13 13 12 11 12 13 12 10 9 8 8 8 8 7
37 37 37 36 35 34 33 32 31 30 29 28 28 27 26 24 22 21 20 19 18 17 16 15 14 14 14 14 14 14 14 12 11 13 14 13 11 9 9 9 9 8
36 37 37 36 35 34 34 33 33 32 30 30 29 28 27 27 25 24 23 22 21 20 19 17 16 15 15 15 16 15 15 14 14 14 14 14 14 12 11 10 10 10
33 34 36 35 33 32 33 34 34 33 32 31 30 29 28 28 28 27 25 24 23 22 21 20 18 17 16 17 17 16 16 16 16 16 15 15 15 15 13 12 12 12
32 31 33 33 30 29 31 32 32 34 34 32 32 31 30 30 29 29 28 26 24 23 22 22 21 20 19 18 19 18 18 17 17 17 16 16 16 16 15 13 13 13
31 30 29 29 28 28 30 30 29 31 34 34 32 30 31 31 30 30 30 28 26 25 24 24 24 23 22 21 21 20 20 20 18 18 18 17 17 16 15 14 14 14
30 28 26 27 29 28 29 29 27 26 30 34 33 30 31 32 32 32 31 30 29 28 28 27 26 26 25 25 24 23 22 22 21 20 20 19 19 18 17 17 16 16
29 28 27 28 29 29 28 28 27 25 27 31 33 31 31 32 32 33 33 33 33 32 31 30 29 28 28 28 26 25 25 24 23 23 22 22 22 21 20 19 19 18
30 30 29 28 29 30 28 26 26 26 26 29 32 31 31 30 30 33 35 35 35 35 34 34 33 31 31 30 29 27 27 26 25 24 24 24 24 23 21 20 20 20
33 31 29 29 29 30 30 27 26 27 27 29 30 30 30 30 29 31 33 35 35 35 36 35 35 34 32 31 31 30 29 28 27 27 25 25 26 25 23 22 21 20
34 30 28 29 29 31 33 31 27 27 29 30 31 31 30 29 28 28 29 32 34 35 36 35 35 34 34 33 32 32 31 30 29 29 27 26 26 25 23 23 24 22
35 33 31 30 32 34 36 34 31 28 29 30 32 33 31 30 30 28 27 29 31 33 34 35 35 36 36 35 34 33 32 31 30 31 30 28 27 26 23 23 24 24
35 36 35 33 36 36 36 36 34 31 30 32 32 32 32 33 32 30 28 27 27 29 31 32 34 37 37 36 35 34 33 32 31 31 31 30 28 27 25 23 23 24
35 34 34 35 36 36 36 36 35 32 32 32 31 31 32 32 30 30 31 29 26 26 28 29 32 36 37 36 35 35 33 32 30 27 26 27 27 27 26 24 23 22
35 33 33 35 36 36 36 35 34 34 34 33 32 31 31 30 30 30 31 31 28 27 28 28 29 33 36 36 35 34 33 33 31 27 24 24 25 26 26 24 24 23
33 33 33 34 36 36 35 33 34 36 37 35 31 29 29 31 31 29 30 32 32 30 30 29 28 31 35 36 35 34 33 33 32 30 25 24 25 26 25 25 25 26
31 32 33 33 34 34 33 33 34 35 35 33 29 28 30 34 34 31 30 33 34 32 31 30 30 32 35 35 35 35 33 33 33 32 29 25 25 27 28 28 27 27
28 31 32 32 31 30 30 31 32 35 35 33 28 26 27 30 32 32 32 34 34 33 31 30 31 33 35 36 36 35 33 33 33 34 33 29 26 27 29 31 31 30
24 26 29 30 28 27 28 30 32 34 34 32 29 26 25 25 27 29 30 31 32 32 32 32 32 34 36 36 36 34 33 33 34 35 35 32 29 28 29 32 33 33
19 22 24 25 26 26 28 30 31 31 32 33 31 29 27 26 25 26 27 28 29 30 32 32 32 33 36 37 36 35 34 34 35 35 34 33 31 29 29 31 34 34
14 19 22 22 24 26 28 28 28 29 32 34 33 30 28 26 24 24 25 26 28 29 31 32 30 30 33 35 35 35 34 35 36 35 33 31 30 29 29 30 33 35
13 16 20 22 23 24 25 24 26 27 28 29 29 28 27 26 25 24 24 25 26 26 28 31 30 29 30 33 34 34 34 35 36 35 33 31 30 29 27 27 30 33
Wind_Direction
218 220 221 223 225 227 230 232 233 234 237 240 242 245 247 249 250 247 243 241 239 237 236 232 225 224 228 231 228 229 232 232 234 242 249 252 250 240 231 233 235 240
218 220 221 223 225 228 231 233 234 235 238 240 242 245 249 251 251 249 246 242 240 238 237 232 226 224 228 232 232 234 237 237 239 248 257 257 251 242 236 236 237 240
218 220 221 223 225 227 229 230 232 234 238 241 242 244 248 249 249 247 245 243 242 241 239 235 231 228 228 230 233 238 239 240 244 249 258 260 250 244 238 235 236 238
218 219 221 222 224 226 228 229 230 232 235 239 241 242 244 246 248 248 246 244 244 244 244 242 239 235 232 231 233 238 240 243 246 247 253 256 252 252 246 239 238 237
218 220 221 221 223 225 227 228 230 231 233 236 239 240 242 245 247 249 249 247 247 249 250 248 245 242 239 236 234 238 241 243 245 246 248 250 252 258 255 247 241 235
218 219 221 221 223 225 226 228 230 232 234 236 238 240 242 244 247 249 250 250 251 252 254 253 250 246 244 242 239 241 243 242 243 246 246 245 248 255 259 257 249 240
218 219 221 221 223 224 226 227 230 232 234 236 238 240 242 244 246 248 250 251 253 254 255 255 253 250 248 247 246 246 247 246 247 249 247 245 247 251 258 263 259 253
216 218 220 220 220 222 224 226 229 232 234 235 237 239 242 243 245 247 250 252 253 254 255 255 255 254 252 251 250 251 251 251 251 252 251 248 249 251 254 258 262 262
213 214 217 217 215 218 221 223 227 231 233 234 235 237 240 242 243 245 248 250 252 253 254 255 255 255 254 253 253 253 253 253 254 255 255 252 251 252 252 252 256 259
211 212 212 212 212 216 220 220 222 227 232 233 233 234 237 241 242 243 245 247 249 250 253 255 255 255 255 255 255 255 254 254 255 257 258 256 254 253 251 250 251 254
210 210 208 209 211 214 218 219 218 221 228 233 231 230 234 238 240 240 241 243 244 247 250 252 254 254 255 255 256 257 256 255 256 258 259 259 259 258 256 255 254 253
208 208 208 210 211 214 216 217 216 217 223 230 231 230 231 235 237 238 239 240 241 244 247 250 252 253 254 255 256 257 257 256 256 258 261 261 260 260 259 258 258 256
208 209 210 210 212 215 215 214 216 216 218 226 230 230 230 231 233 236 238 239 241 242 245 247 249 251 252 254 254 254 256 256 255 256 259 260 260 259 257 257 257 256
212 211 211 212 213 216 216 214 214 216 219 224 227 228 228 229 230 233 237 239 240 242 244 246 247 248 249 251 252 252 253 254 255 255 255 256 258 259 256 256 255 254
215 212 212 213 214 218 220 218 216 217 220 223 226 228 228 228 229 230 234 237 239 241 243 244 245 246 247 248 249 250 250 251 252 255 254 253 254 255 254 255 256 254
217 216 215 214 216 221 223 223 220 219 220 223 227 229 229 229 230 229 230 234 237 239 241 242 242 245 247 249 248 248 249 249 250 253 254 252 251 252 251 251 254 255
216 218 218 218 221 222 223 224 222 221 223 225 227 228 229 229 229 229 229 230 232 235 238 239 241 245 248 249 249 248 247 246 248 251 252 251 250 250 249 249 250 254
215 216 217 219 221 222 222 223 222 221 224 226 225 226 228 227 226 227 229 230 229 231 234 235 239 245 249 250 249 249 247 245 244 245 246 247 247 246 248 248 246 248
215 214 215 218 220 221 221 221 220 221 223 224 224 224 225 225 224 225 229 230 228 229 233 234 237 244 249 250 249 249 247 244 241 240 240 242 243 245 245 245 245 246
215 214 215 218 220 220 220 218 218 222 223 223 222 220 221 224 225 223 226 229 229 230 233 235 237 242 247 250 250 248 247 245 241 240 240 241 242 244 244 243 244 246
216 216 216 218 219 218 218 218 219 222 223 221 219 217 220 225 225 222 223 228 230 229 231 234 237 241 245 248 250 249 246 245 242 240 239 241 242 244 245 246 246 246
217 217 218 219 218 216 216 217 219 222 224 222 220 221 223 225 224 222 221 225 227 226 226 231 236 239 242 246 249 249 246 243 242 241 240 239 241 243 245 248 248 247
219 219 219 218 215 213 215 217 220 222 223 222 221 222 225 225 224 224 224 225 226 224 223 226 231 235 239 243 247 247 243 240 239 240 240 239 240 242 244 247 249 249
227 223 222 220 216 215 217 219 221 222 222 223 222 222 224 226 227 228 229 229 228 227 226 228 230 233 236 240 243 244 241 238 238 238 238 238 239 240 241 245 248 250
250 234 227 224 221 221 222 222 221 223 225 226 225 224 225 227 228 229 230 231 232 232 232 232 233 234 235 237 240 240 238 237 237 235 234 235 237 238 239 242 246 249
278 252 236 231 228 226 226 225 225 226 225 224 224 225 226 227 228 230 232 234 235 235 235 234 234 234 234 236 237 237 236 235 233 231 231 232 234 235 236 238 242 246
Height
844 846 848 850 852 855 856 858 860 861 862 863 865 866 867 868 870 871 872 874 875 876 877 878 879 880 880 881 881 882 883 883 884 884 884 885 885 885 886 886 886 886
841 843 846 848 850 852 855 857 858 859 861 862 863 865 866 867 868 869 871 872 873 875 876 877 878 879 879 880 880 881 882 882 883 883 883 883 884 884 884 885 885 885
839 841 843 845 847 850 852 854 856 858 859 861 862 864 865 866 867 868 869 871 872 873 874 875 876 877 878 879 879 880 880 881 881 882 882 882 883 883 883 884 884 884
836 838 840 843 845 847 850 852 854 856 858 859 860 862 863 864 865 867 868 869 870 871 872 873 875 876 877 877 878 879 879 880 880 881 881 881 882 882 882 883 883 884
833 835 837 840 842 844 847 849 851 853 855 857 858 860 861 862 864 865 866 867 868 869 870 872 873 874 875 876 876 877 877 878 879 879 880 880 881 881 881 882 882 883
830 832 835 837 839 842 844 846 848 850 852 854 856 857 859 860 862 863 864 865 867 868 869 870 871 872 873 874 874 875 876 876 877 877 878 879 879 880 880 881 881 882
826 829 832 834 837 839 841 843 845 847 849 851 853 855 856 858 859 861 862 864 865 866 867 868 869 870 871 872 872 873 873 874 875 875 876 877 878 878 879 879 880 880
824 826 829 832 834 836 838 840 842 844 846 848 850 852 853 855 857 858 860 861 863 864 865 866 867 868 869 869 870 871 871 872 873 873 874 875 875 876 877 878 878 879
821 823 826 828 831 833 835 837 839 841 843 845 847 849 850 852 854 856 857 859 860 861 862 864 865 866 867 867 868 868 869 870 871 871 872 873 873 874 875 876 876 877
818 820 823 825 828 830 831 834 836 838 839 841 844 846 847 849 851 852 854 856 857 859 860 861 862 863 864 865 866 866 867 868 868 869 870 871 872 872 873 874 875 875
814 817 819 821 824 826 828 830 833 835 836 838 841 843 844 845 847 849 850 852 854 855 856 858 859 860 861 862 863 864 865 865 866 867 867 868 869 870 871 872 872 873
811 813 815 817 820 822 824 827 829 831 833 835 837 839 841 842 844 845 847 848 850 851 853 854 855 856 857 859 860 861 862 863 864 864 865 866 866 867 868 869 869 870
806 809 811 814 816 818 821 823 825 828 830 831 833 835 837 839 840 841 843 844 846 847 848 850 851 852 854 855 857 858 859 860 861 862 862 863 863 864 865 866 866 867
803 806 808 810 813 815 817 820 822 824 826 827 829 831 833 835 836 838 839 840 842 843 844 845 846 848 849 851 853 854 855 857 858 859 859 860 860 861 862 863 863 864
800 803 805 808 810 811 814 816 818 820 822 824 825 827 829 831 832 834 835 836 838 839 840 841 842 843 844 846 848 850 851 853 854 855 856 857 857 858 859 859 860 860
798 801 803 805 806 808 810 812 814 817 818 820 821 823 825 827 828 830 832 833 834 835 836 837 837 838 839 841 843 845 847 849 850 851 852 853 854 855 856 856 856 857
795 797 799 801 803 804 806 809 811 813 814 816 818 819 821 823 824 826 827 829 830 830 831 832 832 833 834 836 838 840 843 845 846 847 849 850 851 851 852 853 853 853
791 794 796 798 799 801 803 805 807 810 811 813 814 816 817 819 821 822 823 825 826 826 827 827 827 828 829 831 833 836 838 841 843 844 845 846 847 847 848 849 850 850
788 791 793 794 796 798 799 801 804 806 807 808 810 812 814 815 817 818 819 820 822 822 823 823 824 824 825 827 829 831 834 836 839 840 842 842 843 844 845 846 846 847
786 787 789 791 792 794 796 798 800 801 802 804 806 808 810 811 812 814 815 816 817 818 818 819 820 820 821 822 825 827 829 832 834 837 838 839 839 840 841 842 842 843
783 785 786 787 789 791 793 795 796 797 798 800 802 803 804 805 807 809 810 810 811 813 814 814 815 816 817 818 820 823 825 828 830 832 834 835 836 836 837 838 839 839
781 782 783 784 786 788 790 791 792 793 795 797 799 800 801 801 802 803 803 803 804 806 808 809 809 811 813 814 816 819 822 824 826 828 830 831 832 832 833 834 834 835
780 780 781 782 783 785 786 787 788 789 791 793 795 797 798 799 799 800 800 800 800 801 801 801 802 804 807 809 811 814 818 820 822 824 825 826 827 828 829 829 829 830
778 778 779 779 780 781 782 783 784 786 787 789 790 792 793 794 795 796 797 797 797 797 797 797 797 799 800 803 806 809 813 815 817 819 821 822 823 824 824 824 825 825
777 776 776 777 778 778 779 780 781 782 783 785 786 788 789 790 792 792 792 792 793 794 794 795 795 795 796 797 800 803 807 810 812 815 816 817 818 819 820 820 820 820
776 775 774 775 775 776 777 778 779 780 781 782 783 784 786 787 788 788 788 788 788 789 790 791 791 792 792 793 795 797 800 804 807 809 810 812 813 814 815 816 816 816